Location: B�y�kalan
(36.7000°N, 30.3000°E)
Time: 21:00:57
(UTC+00:00)

Daily predictions for brighter satellites

Satellite Brightness Start Highest point End
(mag) Time Altitude Azimuth Time Altitude Azimuth Time Altitude Azimuth
Gbstr 26 Del rocket 4.4 15:22:20 10° NW 15:29:23 82° NE 15:37:26 10° SE
USA 267 3.8 15:25:58 10° E 15:31:55 39° NNE 15:37:52 10° NNW
Cosmos 489 Rocket 4.5 15:30:50 10° NNW 15:37:02 68° ENE 15:43:12 10° SSE
MOS 1-B Rocket 4.4 15:32:52 10° NNE 15:38:35 38° E 15:43:49 10° SSE
NOSS 2-3 (D) 3.6 15:36:27 10° SW 15:40:22 76° WNW 15:44:44 10° NNE
X-37B 2.1 15:37:51 10° NW 15:41:00 29° NNE 15:44:08 10° ENE
FALCON 9 DEB 4.0 15:39:10 10° S 15:41:39 25° SE 15:44:07 10° ENE
Cosmos 1605 Rocket 4.5 15:36:19 10° SSE 15:41:59 38° E 15:47:46 10° NNE
NOSS 3-1 (C) 3.4 15:38:49 10° SW 15:43:53 70° NW 15:49:44 10° NNE
Cosmos 1328 4.0 15:40:23 10° N 15:44:20 50° E 15:48:14 10° SSE
Cosmos 1269 Rocket 4.0 15:40:34 10° NNW 15:45:52 79° ENE 15:51:09 10° SSE
Cosmos 1455 Rocket 3.7 15:44:30 10° SSW 15:48:52 62° W 15:53:17 10° N
YAOGAN 1 4.1 15:47:56 10° ESE 15:50:34 16° ENE 15:53:14 10° NNE
ATLAS 5 CENTAUR R/B 4.2 15:50:05 10° WNW 15:51:29 11° NW 15:52:55 10° NNW
SKYMED 2 3.6 15:47:26 10° NNE 15:51:43 57° E 15:55:58 10° S
COSMOS 2428 4.4 15:50:40 10° ESE 15:52:10 11° E 15:52:37 11° E
Cosmos 1953 4.3 15:49:04 10° SW 15:52:45 34° WNW 15:56:28 10° NNW
NOSS 2-3 (C) 4.2 15:49:06 10° SW 15:52:57 51° NW 15:57:15 10° NNE
FALCON 9 DEB 3.7 15:50:44 10° SSW 15:53:24 31° SE 15:55:23 15° ENE
Tiangong 2.2 15:50:32 10° WNW 15:53:29 33° N 15:55:50 14° ENE
Cosmos 44 3.5 15:49:49 10° SSW 15:55:10 67° ESE 16:00:31 10° NE
H-2A R/B 3.5 15:53:42 10° ENE 15:56:17 16° E 15:58:53 10° SE
Cosmos 1455 3.9 15:54:49 10° ESE 15:56:46 14° E 15:56:46 14° E
Landsat 5 3.7 15:52:44 10° NNE 15:57:10 60° E 16:01:37 10° S
SL-16 R/B 2.6 15:54:39 10° SSW 16:00:17 68° WNW 16:05:57 10° NNE
Cosmos 1544 Rocket 3.7 15:58:58 10° S 16:03:25 79° W 16:07:53 10° N
Lacrosse 4 Rocket 2.1 15:59:47 10° N 16:03:48 36° ENE 16:07:53 10° SE
Cosmos 1300 3.0 16:00:49 10° SSW 16:04:34 69° W 16:08:22 10° N
FALCON 9 DEB 3.4 16:01:26 10° SSW 16:04:43 47° SE 16:06:52 19° ENE
Cosmos 2251 Rocket 4.2 16:01:36 10° N 16:06:12 31° ENE 16:10:47 10° SE
NOSS 2-2 (D) 4.5 16:04:56 10° SSE 16:07:26 18° ESE 16:07:47 18° ESE
NOSS 2 (A) 4.4 16:06:16 10° NNW 16:08:43 40° NE 16:09:33 28° ESE
Cosmos 1934 Rocket 4.1 16:03:41 10° S 16:09:46 77° W 16:15:51 10° N
Cosmos 2322 Rocket 2.4 16:06:13 10° SSW 16:11:48 73° WNW 16:17:26 10° NNE
NOSS 2-2 (E) 3.6 16:13:24 10° S 16:16:32 32° ESE 16:17:24 28° E
CZ-4C R/B 3.8 16:15:07 10° SE 16:15:11 10° SE 16:15:11 10° SE
Cosmos 2219 Rocket 3.1 16:12:43 10° SSE 16:17:15 26° ESE 16:19:32 20° ENE
deb Chang Zheng 4 4.0 16:15:18 10° S 16:19:26 63° WSW 16:23:38 10° NNW
Cosmos 2360 Rocket 2.1 16:15:08 10° SSW 16:20:45 79° ESE 16:26:26 10° NNE
Cosmos 304 Rocket 4.4 16:16:47 10° SSW 16:21:28 58° WNW 16:26:12 10° N
Okean O Rocket 1.5 16:17:43 10° SSE 16:22:03 87° ENE 16:26:25 10° NNW
IRAS Rocket 4.2 16:17:22 10° NNE 16:22:51 60° ESE 16:28:14 10° S
Iridium 4 Rocket 3.7 16:19:49 10° N 16:24:38 71° W 16:29:55 10° S
ARGOS 3.1 16:19:23 10° SSE 16:24:45 71° ENE 16:30:09 10° N
Cosmos 614 Rocket 4.1 16:21:20 10° N 16:26:15 49° ENE 16:31:12 10° SE
Cosmos 1844 4.4 16:21:53 10° N 16:27:06 34° ENE 16:29:20 25° E
CZ-4 R/B 1.8 16:25:06 18° SE 16:27:40 38° ENE 16:31:29 10° N
CZ-4C R/B 3.2 16:24:53 10° N 16:28:09 64° WNW 16:31:19 10° SSW
Delta 2 Rocket 2.9 16:24:40 10° W 16:28:15 71° S 16:29:19 40° ESE
Cosmos 839 Rocket 4.1 16:22:03 10° NNW 16:29:15 67° ENE 16:35:24 10° SE
Meteor 1-4 Rocket 3.2 16:26:20 10° SSW 16:29:44 54° W 16:33:08 10° N
Cosmos 2333 Rocket 2.5 16:25:43 10° S 16:31:02 44° ESE 16:35:06 17° NE
Lacrosse 5 4.0 16:31:08 10° SSE 16:31:38 11° SE 16:31:38 11° SE
Cosmos 1602 Rocket 3.4 16:29:30 10° N 16:33:50 75° E 16:38:08 10° S
FALCON 9 DEB 3.8 16:32:50 10° WSW 16:35:38 41° NW 16:36:30 32° N
OAO 3 Rocket 3.5 16:31:00 10° WSW 16:35:41 55° SSE 16:37:26 35° ESE
CZ-4B R/B 3.9 16:30:12 10° S 16:35:45 60° W 16:41:22 10° NNW
Milstar 3 Cent rocket 3.8 16:30:55 10° SW 16:36:15 33° SSE 16:40:32 23° ESE
COSMO-SKYMED 1 4.0 16:35:41 10° N 16:39:43 38° WNW 16:43:43 10° SW
IRS-1C Rocket 4.4 16:38:33 27° ESE 16:40:48 41° ENE 16:45:44 10° N
Feng Yun 1-1 Rocket 4.1 16:36:04 10° SSE 16:41:35 77° ENE 16:47:18 10° N
Cosmos 2056 Rocket 4.3 16:38:00 10° SSE 16:41:23 29° SE 16:41:23 29° SE
Spot 2 3.8 16:39:09 10° SSE 16:43:16 81° ENE 16:47:36 10° N
Cosmos 2263 Rocket 4.4 16:38:50 10° NW 16:43:25 27° WSW 16:47:58 10° SSW
CZ-2C R/B 2.9 16:41:36 10° WSW 16:44:27 21° SSW 16:45:47 17° S
In-Cosmos 22 Rocket 3.9 16:39:11 10° N 16:44:30 75° E 16:49:50 10° SSE
Okean-O 3.9 16:48:58 25° NNE 16:48:58 25° NNE 16:51:10 10° N
USA 229 DEB 4.4 16:42:07 10° SW 16:48:13 49° NW 16:54:43 10° NNE
USA 229 4.3 16:42:13 10° SW 16:48:19 50° NW 16:54:49 10° NNE
CZ-2C R/B 3.7 16:44:36 10° N 16:49:55 47° WNW 16:55:06 10° SW
Cosmos 2322 3.6 16:47:26 10° S 16:53:02 62° ESE 16:55:57 29° NE
H-2A R/B 2.5 16:48:48 10° S 16:53:06 81° WSW 16:57:17 10° NNW
CSL-04 Rocket 4.3 16:57:22 36° NE 16:57:22 36° NE 17:01:34 10° N
Cosmos 2228 3.0 16:52:30 10° S 16:56:53 83° W 17:01:18 10° N
Cosmos 1459 Rocket 3.9 16:53:37 10° SSE 16:59:39 56° E 17:05:38 10° NNE
Cosmos 1892 3.0 16:59:07 10° NNW 17:02:50 62° W 17:04:27 31° SSW
NOSS 2-2 (C) 3.7 16:59:42 10° SSW 17:02:17 45° SW 17:02:17 45° SW
Cosmos 1758 Rocket 3.6 16:59:09 10° N 17:03:29 77° W 17:07:24 12° S
Cosmos 2100 Rocket 3.9 16:59:00 10° S 17:05:13 69° E 17:11:33 10° NNE
H-2A R/B 4.3 17:02:51 10° SSW 17:07:20 27° W 17:11:54 10° NW
SL-08 RB Rocket 4.4 17:04:29 10° S 17:08:55 54° W 17:13:27 10° NNW
Cosmos 1408 3.6 17:06:40 10° NNW 17:09:18 41° NW 17:09:18 41° NW
Cosmos 1371 Rocket 3.8 17:08:56 10° S 17:14:04 77° ESE 17:14:04 77° ESE
USA 267 3.6 17:10:12 21° SSE 17:14:41 61° SW 17:21:08 10° NW
Cosmos 2173 Rocket 3.8 17:09:42 10° S 17:15:51 79° E 17:22:08 10° N
Cosmos 1844 Rocket 2.7 17:10:17 10° NNW 17:15:51 78° WSW 17:17:53 41° S
X-37B 2.7 17:15:37 10° WNW 17:17:40 31° WNW 17:17:40 31° WNW
Cosmos 1624 Rocket 4.2 17:18:05 10° SSW 17:22:20 59° S 17:22:20 59° S
CZ-3 Stage 3 4.1 16:39:36 10° W 17:23:26 57° SSW 17:27:52 33° SSE
YAOGAN 1 3.8 17:22:16 10° SSW 17:26:19 39° W 17:30:23 10° NNW
Tiangong 4.2 17:27:24 10° WNW 17:28:03 15° WNW 17:28:03 15° WNW
Cosmos 1455 4.1 17:28:43 10° SW 17:31:47 29° W 17:31:47 29° W
H-2A R/B 3.4 17:30:43 26° NNW 17:32:19 36° WNW 17:36:11 10° SW
BREEZE-M R/B 3.9 17:30:22 10° NW 17:32:42 39° NNW 17:32:42 39° NNW
COSMOS 2428 2.9 17:29:55 10° SSW 17:34:44 65° SW 17:34:44 65° SW
Lacrosse 4 Rocket 4.1 17:39:07 10° WNW 17:42:11 19° WSW 17:44:33 13° SW
Cosmos 407 Rocket 4.4 17:39:51 10° NNW 17:43:30 44° NW 17:43:30 44° NW
Cosmos 2219 Rocket 3.4 17:55:48 10° SW 18:00:57 38° WNW 18:01:22 37° NW
CZ-4 R/B 4.4 18:01:07 11° WSW 18:02:48 14° W 18:04:51 10° WNW
CZ-4C R/B 4.4 18:00:07 10° SW 18:00:28 12° SW 18:00:28 12° SW
Cosmos 2333 Rocket 4.2 18:10:56 10° WSW 18:15:28 24° WNW 18:17:13 21° NNW
H-2A R/B 4.4 17:40:21 10° WSW 18:39:49 73° S 18:40:15 72° SSE
